EW7144 Weather Reports


time (UTC)temp
C
wind
direction
speed
KPH
gust
KPH
rain 1hr
cm
rain 24hr
cm
rain mn
cm
humidity
%
barometer
mb
20260905103406 12 336 14.5 40.2 0.00 0.00 0.00 87 1012.2
20260905102907 12 312 12.9 32.2 0.00 0.00 0.00 87 1012.4
20260905102407 12 341 16.1 38.6 0.00 0.00 0.00 87 1012.5
20260905101907 12 333 16.1 37.0 0.00 0.00 0.00 87 1012.4
20260905101406 12 321 14.5 29.0 0.00 0.00 0.00 87 1012.4
20260905100906 12 308 12.9 40.2 0.00 0.00 0.00 87 1012.4
20260905100406 12 334 16.1 32.2 0.00 0.00 0.00 87 1012.4
20260905095906 12 322 8.0 22.5 0.00 0.00 0.00 86 1012.4
20260905094906 13 228 9.7 24.1 0.00 0.00 0.00 85 1012.4
20260905093906 13 317 11.3 27.4 0.00 0.00 0.00 85 1012.2
20260905093406 12 243 14.5 25.7 0.00 0.00 0.00 85 1012.2
20260905092906 12 283 14.5 32.2 0.00 0.00 0.00 85 1012.2
20260905092406 13 264 14.5 27.4 0.00 0.00 0.00 85 1012.4
20260905091910 12 279 11.3 32.2 0.00 0.00 0.00 85 1012.4
20260905091407 12 311 14.5 37.0 0.00 0.00 0.00 85 1012.5
20260905090906 13 242 12.9 25.7 0.00 0.00 0.00 85 1012.5
20260905090406 13 333 11.3 35.4 0.00 0.00 0.00 85 1012.6
20260905085908 13 297 9.7 29.0 0.00 0.00 0.00 85 1012.5
20260905085407 13 290 8.0 27.4 0.00 0.00 0.00 85 1012.4
20260905084906 13 344 9.7 27.4 0.00 0.00 0.00 85 1012.3
20260905084410 12 237 12.9 37.0 0.00 0.00 0.00 85 1012.1
20260905083408 12 279 14.5 32.2 0.00 0.00 0.00 85 1011.8
20260905082906 12 277 16.1 37.0 0.00 0.00 0.00 84 1011.9
20260905082407 12 310 17.7 41.8 0.00 0.00 0.00 84 1012.0
20260905081908 12 320 17.7 37.0 0.00 0.00 0.00 84 1012.0
20260905081407 13 312 16.1 40.2 0.00 0.00 0.00 84 1011.9
20260905080907 13 318 16.1 41.8 0.00 0.00 0.00 83 1012.0
20260905080406 12 322 19.3 33.8 0.00 0.00 0.00 83 1012.0
20260905075906 12 309 14.5 35.4 0.00 0.00 0.00 83 1012.0
20260905075407 12 323 17.7 40.2 0.00 0.00 0.00 84 1012.0
20260905074906 12 325 16.1 35.4 0.00 0.00 0.00 84 1012.0
20260905074406 13 334 16.1 33.8 0.00 0.00 0.00 85 1012.1
20260905073906 12 327 19.3 38.6 0.00 0.00 0.00 85 1012.0
20260905073406 12 349 11.3 33.8 0.00 0.00 0.00 85 1012.0
20260905072906 12 335 14.5 32.2 0.00 0.00 0.00 85 1011.9
20260905072406 12 339 11.3 35.4 0.00 0.00 0.00 85 1011.9
20260905071907 12 331 14.5 33.8 0.00 0.00 0.00 85 1011.9
20260905071406 12 311 14.5 33.8 0.00 0.00 0.00 86 1011.9
20260905070906 12 252 12.9 32.2 0.00 0.00 0.00 86 1011.9
20260905070406 12 228 14.5 35.4 0.00 0.00 0.00 86 1011.8
20260905065907 12 231 14.5 38.6 0.00 0.00 0.00 86 1011.8
20260905065407 12 319 9.7 41.8 0.00 0.00 0.00 86 1011.8
20260905064906 12 332 9.7 32.2 0.00 0.00 0.00 86 1011.8
20260905064406 12 320 9.7 33.8 0.00 0.00 0.00 86 1011.8
20260905063906 12 344 17.7 41.8 0.00 0.00 0.00 86 1011.8
20260905062906 12 306 12.9 32.2 0.00 0.00 0.00 86 1011.7
20260905062407 12 344 11.3 38.6 0.00 0.00 0.00 86 1011.6
20260905061906 12 299 14.5 32.2 0.00 0.00 0.00 86 1011.4
20260905061406 12 228 16.1 38.6 0.00 0.00 0.00 86 1011.3
20260905060907 12 320 17.7 37.0 0.00 0.00 0.00 85 1011.4
20260905060406 12 343 19.3 45.1 0.00 0.00 0.00 85 1011.3
20260905055906 12 0 20.9 40.2 0.00 0.00 0.00 84 1011.3
20260905055406 13 316 22.5 40.2 0.00 0.00 0.00 84 1011.2
20260905054407 13 343 24.1 48.3 0.00 0.00 0.00 83 1011.3
20260905053906 13 343 17.7 41.8 0.00 0.00 0.00 82 1011.2
20260905053406 13 254 17.7 46.7 0.00 0.00 0.00 81 1011.1
20260905052906 13 330 20.9 46.7 0.00 0.00 0.00 80 1011.2
20260905052406 13 345 22.5 53.1 0.00 0.00 0.00 80 1011.3
20260905051407 13 340 20.9 41.8 0.00 0.00 0.00 81 1011.4
20260905050907 13 337 22.5 41.8 0.00 0.00 0.00 81 1011.7
20260905050406 13 340 22.5 40.2 0.00 0.00 0.00 82 1011.6
20260905045906 13 348 17.7 41.8 0.00 0.00 0.00 83 1011.7
20260905045407 13 326 22.5 35.4 0.00 0.00 0.00 82 1011.9
20260905044906 13 334 19.3 41.8 0.00 0.00 0.00 82 1012.0
20260905043406 13 323 19.3 41.8 0.00 0.00 0.00 82 1012.1
20260905042906 13 347 20.9 32.2 0.00 0.00 0.00 82 1012.1
20260905042407 13 346 20.9 40.2 0.00 0.00 0.00 82 1012.1
20260905041907 13 335 14.5 35.4 0.00 0.00 0.00 82 1012.1
20260905041407 13 351 20.9 45.1 0.00 0.00 0.00 82 1012.1
20260905035906 13 340 19.3 48.3 0.00 0.00 0.00 81 1012.3
20260905035407 13 334 19.3 41.8 0.00 0.00 0.00 82 1012.3
20260905034907 13 344 19.3 37.0 0.00 0.00 0.00 80 1012.4
20260905034406 13 348 25.7 38.6 0.00 0.00 0.00 79 1012.4
20260905033406 14 346 22.5 56.3 0.00 0.00 0.00 80 1012.7
20260905032906 14 329 14.5 38.6 0.00 0.00 0.00 80 1012.9
20260905032406 14 342 14.5 35.4 0.00 0.00 0.00 80 1012.9
20260905031907 13 336 11.3 32.2 0.00 0.00 0.00 80 1012.9
20260905031406 13 352 14.5 29.0 0.00 0.00 0.00 80 1012.9
20260905030906 14 337 19.3 35.4 0.00 0.00 0.00 79 1012.9
20260905030406 14 323 20.9 35.4 0.00 0.00 0.00 78 1012.9
20260905025906 14 325 14.5 35.4 0.00 0.00 0.00 79 1012.9
20260905025406 14 325 19.3 32.2 0.00 0.00 0.00 78 1013.0
20260905024907 14 308 16.1 33.8 0.00 0.00 0.00 78 1012.9
20260905023907 14 326 19.3 41.8 0.00 0.00 0.00 79 1013.2
20260905023406 14 311 17.7 35.4 0.00 0.00 0.00 79 1013.2
20260905022906 14 325 16.1 37.0 0.00 0.00 0.00 80 1013.3
20260905022406 13 332 14.5 32.2 0.00 0.00 0.00 81 1013.3
20260905021906 13 303 11.3 35.4 0.00 0.00 0.00 82 1013.3
20260905021406 13 319 17.7 38.6 0.00 0.00 0.00 81 1013.3
20260905020906 13 313 17.7 32.2 0.00 0.00 0.00 82 1013.3
20260905020406 13 334 14.5 32.2 0.00 0.00 0.00 83 1013.4
20260905015906 12 338 11.3 29.0 0.00 0.00 0.00 83 1013.4
20260905015406 13 344 12.9 37.0 0.00 0.00 0.00 84 1013.5
20260905014906 13 311 11.3 29.0 0.00 0.00 0.00 85 1013.6
20260905014406 12 324 14.5 33.8 0.00 0.00 0.00 85 1013.8
20260905013406 12 297 12.9 38.6 0.00 0.00 0.00 83 1014.0
20260905012906 12 341 16.1 41.8 0.00 0.00 0.00 83 1014.2
20260905011406 12 329 9.7 41.8 0.00 0.00 0.00 84 1014.2
20260905010907 12 292 16.1 32.2 0.00 0.00 0.00 86 1014.3
20260905010407 12 319 8.0 25.7 0.00 0.00 0.00 86 1014.4
20260905005906 12 314 3.2 16.1 0.00 0.00 0.00 87 1014.5
20260905005406 12 301 4.8 19.3 0.00 0.00 0.00 87 1014.6
20260905004906 12 322 9.7 25.7 0.00 0.00 0.00 87 1014.7
20260905004407 12 267 9.7 25.7 0.00 0.00 0.00 87 1014.8
20260905003907 12 314 8.0 22.5 0.00 0.00 0.00 87 1014.9
20260905003407 12 256 9.7 24.1 0.00 0.00 0.00 87 1015.0
20260905002907 12 251 9.7 25.7 0.00 0.00 0.00 87 1015.1
20260905002406 12 310 8.0 27.4 0.00 0.00 0.00 87 1015.4
20260905001906 12 242 12.9 32.2 0.00 0.00 0.00 87 1015.4
20260905001406 12 325 11.3 33.8 0.00 0.00 0.00 86 1015.5
20260905000907 12 346 19.3 35.4 0.00 0.00 0.00 85 1015.4
20260905000407 12 296 8.0 19.3 0.00 0.00 0.00 85 1015.3
20260904235407 12 346 12.9 25.7 0.00 0.00 0.00 84 1015.5
20260904234906 12 345 12.9 24.1 0.00 0.00 0.00 84 1015.5
20260904234406 12 349 14.5 25.7 0.00 0.00 0.00 85 1015.4
20260904233906 12 343 9.7 22.5 0.00 0.00 0.00 86 1015.4
20260904233406 12 343 9.7 24.1 0.00 0.00 0.00 86 1015.5
20260904232906 12 341 11.3 22.5 0.00 0.00 0.00 87 1015.6
20260904232406 12 324 9.7 20.9 0.00 0.00 0.00 87 1015.6
20260904231906 11 303 11.3 24.1 0.00 0.00 0.00 87 1015.8
20260904231406 11 347 9.7 20.9 0.00 0.00 0.00 87 1015.9
20260904230906 11 315 6.4 25.7 0.00 0.00 0.00 87 1015.8
20260904230406 11 341 4.8 19.3 0.00 0.00 0.00 87 1015.9
20260904225906 11 321 8.0 20.9 0.00 0.00 0.00 87 1015.9
20260904225406 11 269 8.0 24.1 0.00 0.00 0.00 87 1015.9
20260904224906 11 211 8.0 20.9 0.00 0.00 0.00 86 1016.0
20260904224407 11 237 9.7 24.1 0.00 0.00 0.00 86 1016.1
20260904223907 11 245 4.8 14.5 0.00 0.00 0.00 85 1016.1
20260904222906 12 234 8.0 22.5 0.00 0.00 0.00 83 1016.0
20260904221906 13 346 12.9 25.7 0.00 0.00 0.00 78 1015.8
20260904221407 13 346 9.7 27.4 0.00 0.00 0.00 78 1015.7
20260904220906 13 315 9.7 22.5 0.00 0.00 0.00 79 1015.6
20260904220406 13 328 9.7 25.7 0.00 0.00 0.00 80 1015.7
20260904215906 13 353 12.9 24.1 0.00 0.00 0.00 80 1015.6
20260904215407 13 325 11.3 24.1 0.00 0.00 0.00 79 1015.7
20260904214406 13 343 12.9 22.5 0.00 0.00 0.00 79 1015.7
20260904213906 13 330 8.0 19.3 0.00 0.00 0.00 80 1015.6
20260904213406 12 321 8.0 24.1 0.00 0.00 0.00 80 1015.7
20260904212406 12 315 4.8 16.1 0.00 0.00 0.00 83 1015.7
20260904211907 12 258 4.8 16.1 0.00 0.00 0.00 83 1015.8
20260904211406 12 313 6.4 19.3 0.00 0.00 0.00 84 1015.9
20260904210906 11 237 1.6 8.0 0.00 0.00 0.00 84 1015.9
20260904210406 11 221 3.2 11.3 0.00 0.00 0.00 84 1015.9
20260904205906 11 209 3.2 9.7 0.00 0.00 0.00 83 1016.0
20260904205406 11 209 3.2 11.3 0.00 0.00 0.00 82 1016.0
20260904204906 11 279 4.8 16.1 0.00 0.00 0.00 82 1016.0
20260904204405 12 201 3.2 14.5 0.00 0.00 0.00 81 1015.9
20260904203906 12 151 4.8 11.3 0.00 0.00 0.00 81 1015.9
20260904202906 11 204 4.8 11.3 0.00 0.00 0.00 81 1015.9
20260904202406 11 217 3.2 9.7 0.00 0.00 0.00 81 1015.9
20260904201406 11 228 1.6 9.7 0.00 0.00 0.00 81 1015.9
20260904200906 11 278 3.2 9.7 0.00 0.00 0.00 81 1015.8
20260904200406 11 253 3.2 8.0 0.00 0.00 0.00 81 1015.8
20260904195906 11 227 3.2 4.8 0.00 0.00 0.00 81 1015.7
20260904195406 11 231 1.6 4.8 0.00 0.00 0.00 81 1015.7
20260904194405 11 299 1.6 8.0 0.00 0.00 0.00 81 1015.5
20260904193906 11 270 1.6 4.8 0.00 0.00 0.00 81 1015.4
20260904193406 11 274 3.2 11.3 0.00 0.00 0.00 81 1015.4
20260904192906 10 343 4.8 9.7 0.00 0.00 0.00 81 1015.3
20260904191906 10 353 3.2 11.3 0.00 0.00 0.00 81 1015.3
20260904191406 10 327 4.8 8.0 0.00 0.00 0.00 81 1015.0
20260904190906 10 320 4.8 9.7 0.00 0.00 0.00 81 1014.9
20260904190406 10 249 3.2 8.0 0.00 0.00 0.00 81 1014.9
20260904185905 10 241 1.6 4.8 0.00 0.00 0.00 81 1014.9
20260904185406 10 332 3.2 8.0 0.00 0.00 0.00 81 1014.9
20260904184906 10 234 1.6 11.3 0.00 0.00 0.00 80 1014.9
20260904184406 10 254 4.8 12.9 0.00 0.00 0.00 80 1014.9
20260904183907 10 243 3.2 8.0 0.00 0.00 0.00 80 1014.8
20260904183406 10 207 3.2 8.0 0.00 0.00 0.00 80 1014.8
20260904182906 10 207 3.2 8.0 0.00 0.00 0.00 79 1014.7
20260904182406 10 276 1.6 4.8 0.00 0.00 0.00 79 1014.8
20260904181905 10 218 3.2 8.0 0.00 0.00 0.00 79 1014.8
20260904180906 10 243 3.2 4.8 0.00 0.00 0.00 79 1014.7
20260904180406 10 228 4.8 14.5 0.00 0.00 0.00 79 1014.8
20260904175406 10 324 3.2 8.0 0.00 0.00 0.00 78 1014.8
20260904174906 10 218 3.2 9.7 0.00 0.00 0.00 78 1014.8
20260904174406 10 239 3.2 9.7 0.00 0.00 0.00 78 1014.7
20260904173906 10 214 3.2 11.3 0.00 0.00 0.00 78 1014.7
20260904173406 10 218 3.2 11.3 0.00 0.00 0.00 77 1014.7
20260904172906 10 218 3.2 11.3 0.00 0.00 0.00 77 1014.6
20260904172406 10 208 6.4 12.9 0.00 0.00 0.00 77 1014.6
20260904171906 10 200 6.4 22.5 0.00 0.00 0.00 77 1014.5
20260904171406 10 207 8.0 19.3 0.00 0.00 0.00 77 1014.5
20260904170906 10 193 6.4 19.3 0.00 0.00 0.00 77 1014.4
20260904170406 10 199 8.0 19.3 0.00 0.00 0.00 77 1014.3
20260904165906 10 200 9.7 19.3 0.00 0.00 0.00 78 1014.2
20260904165406 10 216 9.7 19.3 0.00 0.00 0.00 78 1014.2
20260904164406 10 239 4.8 19.3 0.00 0.00 0.00 78 1014.1
20260904163906 10 219 4.8 14.5 0.00 0.00 0.00 77 1014.0
20260904163407 10 216 6.4 19.3 0.00 0.00 0.00 77 1013.8
20260904162406 10 209 6.4 16.1 0.00 0.00 0.00 77 1013.6
20260904161906 11 205 8.0 19.3 0.00 0.00 0.00 76 1013.5
20260904161406 11 223 9.7 22.5 0.00 0.00 0.00 76 1013.4
20260904160906 11 196 8.0 19.3 0.00 0.00 0.00 76 1013.3
20260904160406 11 198 8.0 29.0 0.00 0.00 0.00 76 1013.2
20260904155906 11 219 11.3 25.7 0.00 0.00 0.00 76 1013.1
20260904155406 11 224 9.7 27.4 0.00 0.00 0.00 76 1013.0
20260904154906 11 200 9.7 29.0 0.00 0.00 0.00 77 1013.0
20260904154406 11 204 14.5 32.2 0.00 0.00 0.00 77 1013.0
20260904153906 11 236 4.8 19.3 0.00 0.00 0.00 77 1013.1
20260904153406 11 209 8.0 25.7 0.00 0.00 0.00 77 1013.1
20260904152905 11 230 6.4 20.9 0.00 0.00 0.00 77 1013.0
20260904152406 11 239 9.7 27.4 0.00 0.00 0.00 77 1012.9
20260904151906 11 202 12.9 25.7 0.00 0.00 0.00 77 1012.8
20260904151406 11 206 11.3 24.1 0.00 0.00 0.00 77 1012.8
20260904150906 11 193 12.9 27.4 0.00 0.00 0.00 77 1012.8
20260904150406 11 211 14.5 29.0 0.00 0.00 0.00 77 1012.8
20260904145906 11 217 11.3 32.2 0.00 0.00 0.00 77 1012.8
20260904145406 11 220 11.3 29.0 0.00 0.00 0.00 77 1012.8
20260904144905 11 196 9.7 22.5 0.00 0.00 0.00 76 1012.9
20260904144406 11 198 12.9 33.8 0.00 0.00 0.00 76 1012.9
20260904143906 11 203 11.3 27.4 0.00 0.00 0.00 76 1012.9
20260904143406 11 195 12.9 32.2 0.00 0.00 0.00 76 1012.9
20260904142906 11 218 9.7 22.5 0.00 0.00 0.00 76 1013.0
20260904142406 11 203 11.3 27.4 0.00 0.00 0.00 76 1013.0
20260904141906 12 199 11.3 29.0 0.00 0.00 0.00 76 1012.9
20260904140906 11 211 14.5 33.8 0.00 0.00 0.00 76 1012.8
20260904140406 11 211 11.3 29.0 0.00 0.00 0.00 76 1012.8
20260904135406 11 229 9.7 37.0 0.00 0.00 0.00 76 1012.7
20260904134906 12 206 11.3 33.8 0.00 0.00 0.00 76 1012.8
20260904134406 11 215 14.5 41.8 0.00 0.00 0.00 76 1012.7
20260904133907 11 208 9.7 24.1 0.00 0.00 0.00 75 1012.6
20260904132906 11 216 16.1 35.4 0.00 0.00 0.00 76 1012.3
20260904132407 11 203 14.5 32.2 0.00 0.00 0.00 77 1012.3
20260904131906 11 194 9.7 33.8 0.00 0.00 0.00 77 1012.3
20260904131406 11 215 9.7 41.8 0.00 0.00 0.00 77 1012.3
20260904130906 11 202 16.1 32.2 0.00 0.00 0.00 77 1012.2
20260904130406 11 231 11.3 29.0 0.00 0.00 0.00 76 1012.2
20260904125906 11 202 8.0 32.2 0.00 0.00 0.00 76 1011.9
20260904124906 11 191 12.9 29.0 0.00 0.00 0.00 76 1011.8
20260904124405 11 192 14.5 32.2 0.00 0.00 0.00 77 1011.7
20260904123906 11 216 16.1 40.2 0.00 0.00 0.00 77 1011.6
20260904123406 11 189 11.3 32.2 0.00 0.00 0.00 78 1011.5
20260904121906 11 203 14.5 25.7 0.00 0.00 0.00 79 1011.3
20260904121407 11 288 8.0 27.4 0.00 0.00 0.00 78 1011.3
20260904120906 11 234 11.3 29.0 0.00 0.00 0.00 78 1011.4
20260904115906 11 196 11.3 33.8 0.00 0.00 0.00 78 1011.3
20260904114906 11 240 9.7 32.2 0.00 0.00 0.00 77 1011.1
20260904114408 11 201 16.1 45.1 0.00 0.00 0.00 76 1011.1
20260904113906 11 202 14.5 45.1 0.00 0.00 0.00 76 1011.1
20260904113406 12 217 12.9 33.8 0.00 0.00 0.00 76 1011.1
20260904112907 11 222 12.9 25.7 0.00 0.00 0.00 76 1011.0
20260904112406 11 228 16.1 33.8 0.00 0.00 0.00 76 1010.9
20260904111906 11 199 12.9 33.8 0.00 0.00 0.00 76 1010.8
20260904110906 11 226 11.3 32.2 0.00 0.00 0.00 75 1010.9
20260904110406 11 220 11.3 29.0 0.00 0.00 0.00 75 1011.0
20260904105907 11 216 12.9 32.2 0.00 0.00 0.00 74 1010.9
20260904105407 11 206 11.3 32.2 0.00 0.00 0.00 74 1011.0
20260904104907 11 300 14.5 41.8 0.00 0.00 0.00 74 1010.8